TimeCST,TemperatureF,Dew PointF,Humidity,Sea Level PressureIn,VisibilityMPH,Wind Direction,Wind SpeedMPH,Gust SpeedMPH,PrecipitationIn,Events,Conditions,WindDirDegrees,DateUTC
12:15 AM,37.9,32.0,79,30.22,10.0,NW,8.1,-,N/A,,Clear,310,2013-11-07 06:15:00
12:35 AM,37.6,31.1,77,30.23,10.0,NW,8.1,-,N/A,,Clear,310,2013-11-07 06:35:00
12:55 AM,37.4,30.9,77,30.23,10.0,NW,6.9,-,N/A,,Clear,320,2013-11-07 06:55:00
1:15 AM,36.5,30.7,80,30.24,10.0,NW,6.9,-,N/A,,Clear,310,2013-11-07 07:15:00
1:35 AM,36.5,30.0,77,30.24,10.0,NW,8.1,-,N/A,,Clear,310,2013-11-07 07:35:00
1:55 AM,35.8,29.7,78,30.25,10.0,NW,6.9,-,N/A,,Clear,310,2013-11-07 07:55:00
2:15 AM,35.6,29.1,77,30.26,10.0,NW,5.8,-,N/A,,Clear,310,2013-11-07 08:15:00
2:35 AM,35.4,28.8,77,30.26,10.0,NW,6.9,-,N/A,,Clear,310,2013-11-07 08:35:00
2:55 AM,35.1,28.4,77,30.26,10.0,NW,5.8,-,N/A,,Clear,310,2013-11-07 08:55:00
3:15 AM,34.5,28.4,78,30.26,10.0,NW,5.8,-,N/A,,Clear,310,2013-11-07 09:15:00
3:35 AM,34.7,28.2,77,30.27,10.0,NW,5.8,-,N/A,,Clear,310,2013-11-07 09:35:00
3:55 AM,34.0,28.2,79,30.28,10.0,NW,6.9,-,N/A,,Clear,310,2013-11-07 09:55:00
4:15 AM,33.8,27.9,79,30.28,10.0,NW,3.5,-,N/A,,Clear,310,2013-11-07 10:15:00
4:35 AM,33.1,28.0,82,30.29,10.0,WNW,4.6,-,N/A,,Clear,300,2013-11-07 10:35:00
4:55 AM,32.7,27.9,82,30.29,10.0,NW,3.5,-,N/A,,Clear,310,2013-11-07 10:55:00
5:15 AM,32.5,27.5,82,30.30,10.0,WNW,3.5,-,N/A,,Clear,300,2013-11-07 11:15:00
5:35 AM,31.6,27.0,83,30.30,10.0,WNW,4.6,-,N/A,,Clear,300,2013-11-07 11:35:00
5:55 AM,31.5,27.5,85,30.30,10.0,Calm,Calm,-,N/A,,Clear,0,2013-11-07 11:55:00
6:15 AM,31.1,27.5,87,30.31,10.0,Calm,Calm,-,N/A,,Clear,0,2013-11-07 12:15:00
6:35 AM,29.8,27.0,89,30.32,10.0,West,3.5,-,N/A,,Clear,260,2013-11-07 12:35:00
6:55 AM,30.6,27.9,90,30.33,10.0,West,3.5,-,N/A,,Clear,260,2013-11-07 12:55:00
7:15 AM,32.0,29.1,89,30.34,10.0,Calm,Calm,-,N/A,,Clear,0,2013-11-07 13:15:00
7:35 AM,33.8,29.7,85,30.35,10.0,WSW,3.5,-,N/A,,Clear,240,2013-11-07 13:35:00
7:55 AM,34.9,29.8,82,30.35,10.0,West,5.8,-,N/A,,Clear,270,2013-11-07 13:55:00
8:15 AM,36.7,29.8,76,30.37,10.0,West,4.6,-,N/A,,Clear,270,2013-11-07 14:15:00
8:35 AM,38.1,29.7,72,30.36,10.0,WNW,3.5,-,N/A,,Clear,290,2013-11-07 14:35:00
8:55 AM,39.4,30.0,69,30.36,10.0,Calm,Calm,-,N/A,,Clear,0,2013-11-07 14:55:00
9:15 AM,41.0,29.1,63,30.36,10.0,WNW,3.5,-,N/A,,Clear,290,2013-11-07 15:15:00
9:35 AM,43.0,28.0,56,30.36,10.0,NW,3.5,-,N/A,,Clear,310,2013-11-07 15:35:00
9:55 AM,44.4,27.7,52,30.35,10.0,WSW,3.5,-,N/A,,Clear,250,2013-11-07 15:55:00
10:15 AM,45.9,25.0,44,30.36,10.0,WSW,3.5,-,N/A,,Clear,250,2013-11-07 16:15:00
10:35 AM,47.1,25.5,43,30.35,10.0,West,9.2,-,N/A,,Clear,260,2013-11-07 16:35:00
10:55 AM,48.2,27.3,44,30.34,10.0,West,9.2,-,N/A,,Clear,270,2013-11-07 16:55:00
11:15 AM,47.8,25.0,41,30.33,10.0,WSW,9.2,-,N/A,,Clear,250,2013-11-07 17:15:00
11:35 AM,48.6,26.2,42,30.33,10.0,West,9.2,-,N/A,,Clear,270,2013-11-07 17:35:00
11:55 AM,49.3,28.4,45,30.31,10.0,WSW,10.4,17.3,N/A,,Clear,250,2013-11-07 17:55:00
12:15 PM,48.7,29.1,47,30.30,10.0,West,13.8,17.3,N/A,,Scattered Clouds,260,2013-11-07 18:15:00
12:35 PM,48.6,28.9,47,30.30,10.0,West,8.1,-,N/A,,Scattered Clouds,270,2013-11-07 18:35:00
12:55 PM,48.4,29.5,48,30.29,10.0,West,9.2,16.1,N/A,,Scattered Clouds,260,2013-11-07 18:55:00
1:15 PM,49.1,29.7,47,30.29,10.0,WSW,6.9,-,N/A,,Clear,240,2013-11-07 19:15:00
1:35 PM,50.5,30.4,46,30.28,10.0,WSW,10.4,20.7,N/A,,Scattered Clouds,240,2013-11-07 19:35:00
1:55 PM,50.5,30.0,45,30.28,10.0,West,9.2,-,N/A,,Scattered Clouds,260,2013-11-07 19:55:00
2:15 PM,51.1,30.7,46,30.27,10.0,West,13.8,17.3,N/A,,Scattered Clouds,270,2013-11-07 20:15:00
2:35 PM,51.1,31.5,47,30.26,10.0,WSW,12.7,16.1,N/A,,Scattered Clouds,250,2013-11-07 20:35:00
2:55 PM,50.9,31.6,48,30.26,10.0,WSW,12.7,17.3,N/A,,Scattered Clouds,250,2013-11-07 20:55:00
3:15 PM,49.5,31.6,50,30.26,10.0,WSW,9.2,-,N/A,,Mostly Cloudy,250,2013-11-07 21:15:00
3:35 PM,50.5,32.0,49,30.26,10.0,WSW,10.4,-,N/A,,Mostly Cloudy,250,2013-11-07 21:35:00
3:55 PM,50.0,32.4,51,30.26,10.0,WSW,6.9,-,N/A,,Overcast,250,2013-11-07 21:55:00
4:35 PM,48.9,32.9,54,30.26,10.0,WSW,5.8,-,N/A,,Overcast,240,2013-11-07 22:35:00
4:55 PM,47.7,32.9,57,30.27,10.0,West,5.8,-,N/A,,Mostly Cloudy,260,2013-11-07 22:55:00
5:15 PM,44.8,33.4,64,30.27,10.0,West,3.5,-,N/A,,Scattered Clouds,270,2013-11-07 23:15:00
5:35 PM,43.2,32.2,65,30.28,10.0,WNW,5.8,-,N/A,,Clear,290,2013-11-07 23:35:00
5:55 PM,42.8,32.0,66,30.28,10.0,WNW,5.8,-,N/A,,Clear,290,2013-11-07 23:55:00
6:15 PM,44.2,31.5,61,30.29,10.0,WNW,8.1,-,N/A,,Clear,300,2013-11-08 00:15:00
6:35 PM,44.6,30.4,57,30.29,10.0,NW,6.9,-,N/A,,Clear,310,2013-11-08 00:35:00
6:55 PM,42.4,30.2,62,30.30,10.0,NW,4.6,-,N/A,,Clear,310,2013-11-08 00:55:00
7:15 PM,42.4,29.5,60,30.30,10.0,NW,5.8,-,N/A,,Clear,310,2013-11-08 01:15:00
7:35 PM,42.1,28.4,58,30.31,10.0,NW,5.8,-,N/A,,Clear,310,2013-11-08 01:35:00
7:55 PM,41.0,27.7,59,30.31,10.0,NW,5.8,-,N/A,,Clear,320,2013-11-08 01:55:00
8:15 PM,39.7,28.0,63,30.31,10.0,NNW,3.5,-,N/A,,Clear,340,2013-11-08 02:15:00
8:35 PM,40.5,28.4,62,30.32,10.0,NNW,3.5,-,N/A,,Clear,340,2013-11-08 02:35:00
8:55 PM,39.0,28.4,66,30.32,10.0,Calm,Calm,-,N/A,,Clear,0,2013-11-08 02:55:00
9:15 PM,36.7,28.6,72,30.32,10.0,Calm,Calm,-,N/A,,Clear,0,2013-11-08 03:15:00
9:35 PM,35.4,28.9,77,30.32,10.0,Calm,Calm,-,N/A,,Clear,0,2013-11-08 03:35:00
9:55 PM,33.8,28.9,82,30.31,10.0,Calm,Calm,-,N/A,,Clear,0,2013-11-08 03:55:00
10:15 PM,33.8,30.4,87,30.31,10.0,Calm,Calm,-,N/A,,Clear,0,2013-11-08 04:15:00
10:35 PM,32.9,29.7,88,30.31,10.0,Calm,Calm,-,N/A,,Clear,0,2013-11-08 04:35:00
10:55 PM,32.5,29.8,90,30.31,10.0,Calm,Calm,-,N/A,,Clear,0,2013-11-08 04:55:00
11:15 PM,32.5,29.8,90,30.31,10.0,Calm,Calm,-,N/A,,Clear,0,2013-11-08 05:15:00
11:35 PM,32.0,28.9,88,30.32,10.0,Calm,Calm,-,N/A,,Clear,0,2013-11-08 05:35:00
11:55 PM,31.8,29.1,90,30.33,10.0,Calm,Calm,-,N/A,,Clear,0,2013-11-08 05:55:00